Weather Roundup
Issued by NWS

Home | Current Version | Previous Version | Graphics & Text | Print | Product List | Glossary Off
Versions: 1 2 3 4 5 6 7 8 9 10 11 12 13 14 15 16 17 18 19 20 21 22 23 24 25 26 27 28 29 30 31 32 33 34 35 36 37 38 39 40 41 42 43 44 45 46 47 48 49 50

832
NZUS93 KARX 311159
HRRWXR

CURRENT HOURLY OBSERVATIONS ACROSS
MUCH OF THE UPPER MISSISSIPPI VALLEY
NATIONAL WEATHER SERVICE LA CROSSE WI
700 AM CDT TUE MAY 31 2016


...SOUTHEAST MINNESOTA...


CITY           SKY/WX    TMP DP  RH WIND       PRES   REMARKS
ROCHESTER      CLOUDY    63  56  78 S13       29.93R
ROCHESTER/MAYO PTSUNNY   65  54  67 SE12      29.91R
WINONA         CLOUDY    66  57  72 SE6       29.90F
AUSTIN         CLOUDY    63  55  77 S6        29.92R
ALBERT LEA     LGT RAIN  64  59  82 S9        29.91R
DODGE CENTER   CLOUDY    64  55  72 S14       29.91R
PRESTON        CLOUDY    62  55  78 SE6       29.93R
OWATONNA       CLOUDY    63  57  82 S12       29.91R
FARIBAULT      NOT AVBL
$$

...ELSEWHERE IN MINNESOTA...


CITY           SKY/WX    TMP DP  RH WIND       PRES   REMARKS
MINNEAPOLIS    CLOUDY    66  57  72 SE9       29.86F
INTNL FALLS    LGT RAIN  52  45  77 SE13G22   29.94R
DULUTH         CLOUDY    47  41  80 E16G28    29.95F
RED WING       CLOUDY    66  54  63 SE7       29.88R
REDWOOD FALLS  LGT RAIN  64  60  87 SW14      29.83R
MANKATO        CLOUDY    63  57  82 S12       29.87R
WORTHINGTON    LGT RAIN  61  59  93 SW15      29.89R
FAIRMONT       CLOUDY    63  59  88 SE10      29.87R
$$

...SOUTHWEST WISCONSIN...


CITY           SKY/WX    TMP DP  RH WIND       PRES   REMARKS
LA CROSSE      PTSUNNY   65  59  81 SE5       29.91F
PRAIRIE DU CHI MOSUNNY   61  60  96 CALM      29.94S
BOSCOBEL       NOT AVBL
LONE ROCK      NOT AVBL
PLATTEVILLE    MOSUNNY   64  60  85 E10       29.96S
FORT MC COY    CLOUDY    62  60  93 CALM      29.95F
MAUSTON-NEW LI CLOUDY    61  59  94 SE3       29.97S
VIROQUA        FAIR      61  59  93 E9        29.95F
WIS DELLS      SUNNY     67  55  66 E7        29.98S
$$

...ELSEWHERE IN WISCONSIN...


CITY           SKY/WX    TMP DP  RH WIND       PRES   REMARKS
MILWAUKEE      CLOUDY    64  56  75 E3        30.03R
MADISON        PTSUNNY   67  58  72 E6        29.98F
GREEN BAY      MOSUNNY   57  51  80 NE15      30.08R
EAU CLAIRE     NOT AVBL
BLACK RVR FLS  FAIR      63  62  97 CALM      29.94F
MEDFORD        PTSUNNY   58  54  88 E9        29.98R
WAUSAU         CLOUDY    57  50  77 E12       30.00F
WIS RAPIDS     CLOUDY    61  54  77 E13       30.01R
MARSHFIELD     MOSUNNY   63  55  75 E13       29.98R
RICE LAKE      CLOUDY    64  56  75 SE9       29.92F
$$

...NORTHEAST IOWA...


CITY           SKY/WX    TMP DP  RH WIND       PRES   REMARKS
WATERLOO       CLOUDY    63  58  83 S10       29.94R
DUBUQUE        PTSUNNY   65  59  81 SE13      29.96S
DECORAH        CLOUDY    63  61  94 SE10      29.91F
MASON CITY     CLOUDY    62  59  90 SE14      29.93R
CHARLES CITY   CLOUDY    63  61  94 S12       29.93R
OELWEIN        CLOUDY    63  61  94 SE14      29.94S
$$

...ELSEWHERE IN IOWA...


CITY           SKY/WX    TMP DP  RH WIND       PRES   REMARKS
DES MOINES     CLOUDY    66  59  78 S7        29.94R
IOWA CITY      SUNNY     65  61  87 S3        29.98R
FORT DODGE     CLOUDY    64  57  77 S8        29.91R
MARSHALLTOWN   CLOUDY    64  59  83 S8        29.95R
CEDAR RAPIDS   SUNNY     63  62  97 S5        29.95R
$$

...NORTHERN ILLINOIS...


CITY           SKY/WX    TMP DP  RH WIND       PRES   REMARKS
CHICAGO-OHARE  PTSUNNY   69  54  58 E8        30.00R
CHICAGO-MIDWAY PTSUNNY   72  56  57 E7        29.99R
MOLINE         CLOUDY    71  64  78 CALM      29.96R
ROCKFORD       CLOUDY    68  60  75 E6        30.00S
PEORIA         CLOUDY    68  63  84 S3        29.98R
$$

NOTE: "FAIR" INDICATES FEW OR NO CLOUDS BELOW 12,000 FEET WITH NO
SIGNIFICANT WEATHER AND/OR OBSTRUCTIONS TO VISIBILITY. WIND
SPEEDS ARE IN MILES-PER-HOUR.




USA.gov is the U.S. government's official web portal to all federal, state and local government web resources and services.